Time,TemperatureF,DewpointF,PressureIn,WindDirection,WindDirectionDegrees,WindSpeedMPH,WindSpeedGustMPH,Humidity,HourlyPrecipIn,Conditions,Clouds,dailyrainin,SoftwareType,DateUTC
2013-03-07 00:02:00,17.0,-99.9,-100.00,SE,130,11.0,-999.0,0,-99.99,,,-99.99,,2013-03-07 06:02:00,
2013-03-07 00:11:00,17.0,-99.9,-100.00,ESE,123,9.0,-999.0,0,-99.99,,,-99.99,,2013-03-07 06:11:00,
2013-03-07 00:22:00,17.0,-99.9,-100.00,SE,134,11.0,-999.0,0,-99.99,,,-99.99,,2013-03-07 06:22:00,
2013-03-07 00:32:00,17.0,-99.9,-100.00,SE,131,10.0,-999.0,0,-99.99,,,-99.99,,2013-03-07 06:32:00,
2013-03-07 00:42:00,18.0,-99.9,-100.00,SSE,149,9.0,-999.0,0,-99.99,,,-99.99,,2013-03-07 06:42:00,
2013-03-07 00:52:00,18.0,-99.9,-100.00,SE,141,15.0,-999.0,0,-99.99,,,-99.99,,2013-03-07 06:52:00,
2013-03-07 01:02:00,18.0,-99.9,-100.00,SE,141,15.0,-999.0,0,-99.99,,,-99.99,,2013-03-07 07:02:00,
2013-03-07 01:11:00,18.0,-99.9,-100.00,SE,135,13.0,-999.0,0,-99.99,,,-99.99,,2013-03-07 07:11:00,
2013-03-07 01:22:00,18.0,-99.9,-100.00,SE,133,11.0,-999.0,0,-99.99,,,-99.99,,2013-03-07 07:22:00,
2013-03-07 01:32:00,18.0,-99.9,-100.00,SSE,165,9.0,-999.0,0,-99.99,,,-99.99,,2013-03-07 07:32:00,
2013-03-07 01:43:00,18.0,-99.9,-100.00,SE,136,7.0,-999.0,0,-99.99,,,-99.99,,2013-03-07 07:43:00,
2013-03-07 01:53:00,18.0,-99.9,-100.00,SSE,156,10.0,-999.0,0,-99.99,,,-99.99,,2013-03-07 07:53:00,
2013-03-07 02:03:00,18.0,-99.9,-100.00,SSE,148,14.0,-999.0,0,-99.99,,,-99.99,,2013-03-07 08:03:00,
2013-03-07 02:12:00,18.0,-99.9,-100.00,South,171,10.0,-999.0,0,-99.99,,,-99.99,,2013-03-07 08:12:00,
2013-03-07 02:23:00,18.0,-99.9,-100.00,SSE,151,17.0,-999.0,0,-99.99,,,-99.99,,2013-03-07 08:23:00,
2013-03-07 02:34:00,18.0,-99.9,-100.00,SSE,163,17.0,-999.0,0,-99.99,,,-99.99,,2013-03-07 08:34:00,
2013-03-07 02:45:00,18.0,-99.9,-100.00,SSE,153,15.0,-999.0,0,-99.99,,,-99.99,,2013-03-07 08:45:00,
2013-03-07 02:55:00,18.0,-99.9,-100.00,South,172,8.0,-999.0,0,-99.99,,,-99.99,,2013-03-07 08:55:00,
2013-03-07 03:04:00,18.0,-99.9,-100.00,South,191,11.0,-999.0,0,-99.99,,,-99.99,,2013-03-07 09:04:00,
2013-03-07 03:14:00,18.0,-99.9,-100.00,SSE,161,6.0,-999.0,0,-99.99,,,-99.99,,2013-03-07 09:14:00,
2013-03-07 03:24:00,18.0,-99.9,-100.00,South,169,18.0,-999.0,0,-99.99,,,-99.99,,2013-03-07 09:24:00,
2013-03-07 03:33:00,18.0,-99.9,-100.00,SSE,168,15.0,-999.0,0,-99.99,,,-99.99,,2013-03-07 09:33:00,
2013-03-07 03:43:00,18.0,-99.9,-100.00,South,173,17.0,-999.0,0,-99.99,,,-99.99,,2013-03-07 09:43:00,
2013-03-07 03:54:00,18.0,-99.9,-100.00,South,176,11.0,-999.0,0,-99.99,,,-99.99,,2013-03-07 09:54:00,
2013-03-07 04:04:00,18.0,-99.9,-100.00,South,172,10.0,-999.0,0,-99.99,,,-99.99,,2013-03-07 10:04:00,
2013-03-07 04:14:00,18.0,-99.9,-100.00,South,170,18.0,-999.0,0,-99.99,,,-99.99,,2013-03-07 10:14:00,
2013-03-07 04:24:00,18.0,-99.9,-100.00,South,174,16.0,-999.0,0,-99.99,,,-99.99,,2013-03-07 10:24:00,
2013-03-07 04:34:00,18.0,-99.9,-100.00,SSE,161,18.0,-999.0,0,-99.99,,,-99.99,,2013-03-07 10:34:00,
2013-03-07 04:43:00,18.0,-99.9,-100.00,South,178,15.0,-999.0,0,-99.99,,,-99.99,,2013-03-07 10:43:00,
2013-03-07 04:54:00,18.0,-99.9,-100.00,SSE,162,14.0,-999.0,0,-99.99,,,-99.99,,2013-03-07 10:54:00,
2013-03-07 05:04:00,18.0,-99.9,-100.00,South,173,12.0,-999.0,0,-99.99,,,-99.99,,2013-03-07 11:04:00,
2013-03-07 05:12:00,18.0,-99.9,-100.00,SSE,162,9.0,-999.0,0,-99.99,,,-99.99,,2013-03-07 11:12:00,
2013-03-07 05:24:00,18.0,-99.9,-100.00,SE,145,15.0,-999.0,0,-99.99,,,-99.99,,2013-03-07 11:24:00,
2013-03-07 05:34:00,19.0,-99.9,-100.00,SSE,147,18.0,-999.0,0,-99.99,,,-99.99,,2013-03-07 11:34:00,
2013-03-07 05:44:00,19.0,-99.9,-100.00,SSE,167,11.0,-999.0,0,-99.99,,,-99.99,,2013-03-07 11:44:00,
2013-03-07 05:55:00,19.0,-99.9,-100.00,South,170,18.0,-999.0,0,-99.99,,,-99.99,,2013-03-07 11:55:00,
2013-03-07 06:04:00,19.0,-99.9,-100.00,SSE,166,15.0,-999.0,0,-99.99,,,-99.99,,2013-03-07 12:04:00,
2013-03-07 06:13:00,19.0,-99.9,-100.00,SSE,147,19.0,-999.0,0,-99.99,,,-99.99,,2013-03-07 12:13:00,
2013-03-07 06:23:00,19.0,-99.9,-100.00,South,175,15.0,-999.0,0,-99.99,,,-99.99,,2013-03-07 12:23:00,
2013-03-07 06:34:00,19.0,-99.9,-100.00,South,172,19.0,-999.0,0,-99.99,,,-99.99,,2013-03-07 12:34:00,
2013-03-07 06:43:00,19.0,-99.9,-100.00,SSE,161,22.0,-999.0,0,-99.99,,,-99.99,,2013-03-07 12:43:00,
2013-03-07 06:53:00,19.0,-99.9,-100.00,South,169,20.0,-999.0,0,-99.99,,,-99.99,,2013-03-07 12:53:00,
2013-03-07 07:03:00,19.0,-99.9,-100.00,SSE,162,20.0,-999.0,0,-99.99,,,-99.99,,2013-03-07 13:03:00,
2013-03-07 07:13:00,19.0,-99.9,-100.00,South,171,17.0,-999.0,0,-99.99,,,-99.99,,2013-03-07 13:13:00,
2013-03-07 07:23:00,19.0,-99.9,-100.00,SE,144,23.0,-999.0,0,-99.99,,,-99.99,,2013-03-07 13:23:00,
2013-03-07 07:33:00,19.0,-99.9,-100.00,South,176,20.0,-999.0,0,-99.99,,,-99.99,,2013-03-07 13:33:00,
2013-03-07 07:43:00,19.0,-99.9,-100.00,South,176,20.0,-999.0,0,-99.99,,,-99.99,,2013-03-07 13:43:00,
2013-03-07 07:53:00,19.0,-99.9,-100.00,South,181,27.0,-999.0,0,-99.99,,,-99.99,,2013-03-07 13:53:00,
2013-03-07 08:02:00,19.0,-99.9,-100.00,South,169,16.0,-999.0,0,-99.99,,,-99.99,,2013-03-07 14:02:00,
2013-03-07 08:13:00,19.0,-99.9,-100.00,SSE,158,27.0,-999.0,0,-99.99,,,-99.99,,2013-03-07 14:13:00,
2013-03-07 08:23:00,20.0,-99.9,-100.00,South,180,23.0,-999.0,0,-99.99,,,-99.99,,2013-03-07 14:23:00,
2013-03-07 08:34:00,20.0,-99.9,-100.00,SSE,156,22.0,-999.0,0,-99.99,,,-99.99,,2013-03-07 14:34:00,
2013-03-07 08:43:00,20.0,-99.9,-100.00,South,169,20.0,-999.0,0,-99.99,,,-99.99,,2013-03-07 14:43:00,
2013-03-07 08:54:00,20.0,-99.9,-100.00,South,181,19.0,-999.0,0,-99.99,,,-99.99,,2013-03-07 14:54:00,
2013-03-07 09:03:00,20.0,-99.9,-100.00,South,172,15.0,-999.0,0,-99.99,,,-99.99,,2013-03-07 15:03:00,
2013-03-07 09:13:00,20.0,-99.9,-100.00,SSE,158,23.0,-999.0,0,-99.99,,,-99.99,,2013-03-07 15:13:00,
2013-03-07 09:23:00,20.0,-99.9,-100.00,SSE,166,18.0,-999.0,0,-99.99,,,-99.99,,2013-03-07 15:23:00,
2013-03-07 09:33:00,20.0,-99.9,-100.00,South,181,19.0,-999.0,0,-99.99,,,-99.99,,2013-03-07 15:33:00,
2013-03-07 09:43:00,20.0,-99.9,-100.00,South,172,22.0,-999.0,0,-99.99,,,-99.99,,2013-03-07 15:43:00,
2013-03-07 09:53:00,21.0,-99.9,-100.00,SSE,168,10.0,-999.0,0,-99.99,,,-99.99,,2013-03-07 15:53:00,
2013-03-07 10:03:00,21.0,-99.9,-100.00,South,179,27.0,-999.0,0,-99.99,,,-99.99,,2013-03-07 16:03:00,
2013-03-07 10:13:00,22.0,-99.9,-100.00,South,171,24.0,-999.0,0,-99.99,,,-99.99,,2013-03-07 16:13:00,
2013-03-07 10:24:00,22.0,-99.9,-100.00,South,185,17.0,-999.0,0,-99.99,,,-99.99,,2013-03-07 16:24:00,
2013-03-07 10:33:00,23.0,-99.9,-100.00,SSW,193,21.0,-999.0,0,-99.99,,,-99.99,,2013-03-07 16:33:00,
2013-03-07 10:43:00,24.0,-99.9,-100.00,South,184,17.0,-999.0,0,-99.99,,,-99.99,,2013-03-07 16:43:00,
2013-03-07 10:53:00,24.0,-99.9,-100.00,South,170,17.0,-999.0,0,-99.99,,,-99.99,,2013-03-07 16:53:00,
2013-03-07 11:03:00,24.0,-99.9,-100.00,South,173,24.0,-999.0,0,-99.99,,,-99.99,,2013-03-07 17:03:00,
2013-03-07 11:23:00,26.0,-99.9,-100.00,SSE,168,31.0,-999.0,0,-99.99,,,-99.99,,2013-03-07 17:23:00,
2013-03-07 11:34:00,27.0,-99.9,-100.00,South,172,17.0,-999.0,0,-99.99,,,-99.99,,2013-03-07 17:34:00,
2013-03-07 11:44:00,27.0,-99.9,-100.00,SSE,168,18.0,-999.0,0,-99.99,,,-99.99,,2013-03-07 17:44:00,
2013-03-07 11:55:00,28.0,-99.9,-100.00,SE,130,18.0,-999.0,0,-99.99,,,-99.99,,2013-03-07 17:55:00,
2013-03-07 12:04:00,28.0,-99.9,-100.00,South,175,23.0,-999.0,0,-99.99,,,-99.99,,2013-03-07 18:04:00,
2013-03-07 12:13:00,28.0,-99.9,-100.00,SSE,159,26.0,-999.0,0,-99.99,,,-99.99,,2013-03-07 18:13:00,
2013-03-07 12:22:00,28.0,-99.9,-100.00,South,174,23.0,-999.0,0,-99.99,,,-99.99,,2013-03-07 18:22:00,
2013-03-07 12:33:00,29.0,-99.9,-100.00,SSE,161,20.0,-999.0,0,-99.99,,,-99.99,,2013-03-07 18:33:00,
2013-03-07 12:43:00,29.0,-99.9,-100.00,South,181,20.0,-999.0,0,-99.99,,,-99.99,,2013-03-07 18:43:00,
2013-03-07 12:53:00,30.0,-99.9,-100.00,SSE,147,20.0,-999.0,0,-99.99,,,-99.99,,2013-03-07 18:53:00,
2013-03-07 13:04:00,30.0,-99.9,-100.00,SSE,150,29.0,-999.0,0,-99.99,,,-99.99,,2013-03-07 19:04:00,
2013-03-07 13:13:00,30.0,-99.9,-100.00,South,173,23.0,-999.0,0,-99.99,,,-99.99,,2013-03-07 19:13:00,
2013-03-07 13:24:00,31.0,-99.9,-100.00,South,175,22.0,-999.0,0,-99.99,,,-99.99,,2013-03-07 19:24:00,
2013-03-07 13:35:00,31.0,-99.9,-100.00,South,182,19.0,-999.0,0,-99.99,,,-99.99,,2013-03-07 19:35:00,
2013-03-07 13:44:00,31.0,-99.9,-100.00,SSE,160,20.0,-999.0,0,-99.99,,,-99.99,,2013-03-07 19:44:00,
2013-03-07 13:53:00,32.0,-99.9,-100.00,South,182,18.0,-999.0,0,-99.99,,,-99.99,,2013-03-07 19:53:00,
2013-03-07 14:02:00,32.0,-99.9,-100.00,South,182,18.0,-999.0,0,-99.99,,,-99.99,,2013-03-07 20:02:00,
2013-03-07 14:14:00,32.0,-99.9,-100.00,SSE,161,23.0,-999.0,0,-99.99,,,-99.99,,2013-03-07 20:14:00,
2013-03-07 14:23:00,32.0,-99.9,-100.00,SSE,163,26.0,-999.0,0,-99.99,,,-99.99,,2013-03-07 20:23:00,
2013-03-07 14:34:00,33.0,-99.9,-100.00,South,179,22.0,-999.0,0,-99.99,,,-99.99,,2013-03-07 20:34:00,
2013-03-07 14:44:00,34.0,-99.9,-100.00,South,172,31.0,-999.0,0,-99.99,,,-99.99,,2013-03-07 20:44:00,
2013-03-07 14:54:00,34.0,-99.9,-100.00,SSE,168,24.0,-999.0,0,-99.99,,,-99.99,,2013-03-07 20:54:00,
2013-03-07 15:03:00,34.0,-99.9,-100.00,South,171,19.0,-999.0,0,-99.99,,,-99.99,,2013-03-07 21:03:00,
2013-03-07 15:13:00,34.0,-99.9,-100.00,South,170,22.0,-999.0,0,-99.99,,,-99.99,,2013-03-07 21:13:00,
2013-03-07 15:23:00,35.0,-99.9,-100.00,South,178,13.0,-999.0,0,-99.99,,,-99.99,,2013-03-07 21:23:00,
2013-03-07 15:33:00,35.0,-99.9,-100.00,South,180,25.0,-999.0,0,-99.99,,,-99.99,,2013-03-07 21:33:00,
2013-03-07 15:43:00,35.0,-99.9,-100.00,South,177,15.0,-999.0,0,-99.99,,,-99.99,,2013-03-07 21:43:00,
2013-03-07 15:53:00,35.0,-99.9,-100.00,SSE,167,14.0,-999.0,0,-99.99,,,-99.99,,2013-03-07 21:53:00,
2013-03-07 16:02:00,35.0,-99.9,-100.00,South,179,20.0,-999.0,0,-99.99,,,-99.99,,2013-03-07 22:02:00,
2013-03-07 16:12:00,35.0,-99.9,-100.00,South,175,25.0,-999.0,0,-99.99,,,-99.99,,2013-03-07 22:12:00,
2013-03-07 16:23:00,34.0,-99.9,-100.00,SSE,153,22.0,-999.0,0,-99.99,,,-99.99,,2013-03-07 22:23:00,
2013-03-07 16:33:00,35.0,-99.9,-100.00,South,170,22.0,-999.0,0,-99.99,,,-99.99,,2013-03-07 22:33:00,
2013-03-07 16:44:00,34.0,-99.9,-100.00,SSE,164,20.0,-999.0,0,-99.99,,,-99.99,,2013-03-07 22:44:00,
2013-03-07 16:55:00,35.0,-99.9,-100.00,SSE,152,26.0,-999.0,0,-99.99,,,-99.99,,2013-03-07 22:55:00,
2013-03-07 17:04:00,35.0,-99.9,-100.00,SSE,152,26.0,-999.0,0,-99.99,,,-99.99,,2013-03-07 23:04:00,
2013-03-07 17:13:00,35.0,-99.9,-100.00,South,177,22.0,-999.0,0,-99.99,,,-99.99,,2013-03-07 23:13:00,
2013-03-07 17:23:00,35.0,-99.9,-100.00,South,173,21.0,-999.0,0,-99.99,,,-99.99,,2013-03-07 23:23:00,
2013-03-07 17:35:00,35.0,-99.9,-100.00,SSE,167,20.0,-999.0,0,-99.99,,,-99.99,,2013-03-07 23:35:00,
2013-03-07 17:44:00,35.0,-99.9,-100.00,South,182,14.0,-999.0,0,-99.99,,,-99.99,,2013-03-07 23:44:00,
2013-03-07 17:54:00,34.0,-99.9,-100.00,SSE,163,14.0,-999.0,0,-99.99,,,-99.99,,2013-03-07 23:54:00,
2013-03-07 18:05:00,34.0,-99.9,-100.00,SSE,163,14.0,-999.0,0,-99.99,,,-99.99,,2013-03-08 00:05:00,
2013-03-07 18:13:00,35.0,-99.9,-100.00,South,176,17.0,-999.0,0,-99.99,,,-99.99,,2013-03-08 00:13:00,
2013-03-07 18:23:00,34.0,-99.9,-100.00,South,175,17.0,-999.0,0,-99.99,,,-99.99,,2013-03-08 00:23:00,
2013-03-07 18:35:00,34.0,-99.9,-100.00,SSE,166,12.0,-999.0,0,-99.99,,,-99.99,,2013-03-08 00:35:00,
2013-03-07 18:44:00,34.0,-99.9,-100.00,SSE,153,18.0,-999.0,0,-99.99,,,-99.99,,2013-03-08 00:44:00,
2013-03-07 18:54:00,34.0,-99.9,-100.00,South,179,10.0,-999.0,0,-99.99,,,-99.99,,2013-03-08 00:54:00,
2013-03-07 19:02:00,34.0,-99.9,-100.00,SSE,155,10.0,-999.0,0,-99.99,,,-99.99,,2013-03-08 01:02:00,
2013-03-07 19:12:00,33.0,-99.9,-100.00,SSE,165,16.0,-999.0,0,-99.99,,,-99.99,,2013-03-08 01:12:00,
2013-03-07 19:22:00,33.0,-99.9,-100.00,SSE,167,14.0,-999.0,0,-99.99,,,-99.99,,2013-03-08 01:22:00,
2013-03-07 19:33:00,33.0,-99.9,-100.00,SSE,158,11.0,-999.0,0,-99.99,,,-99.99,,2013-03-08 01:33:00,
2013-03-07 19:42:00,33.0,-99.9,-100.00,South,170,12.0,-999.0,0,-99.99,,,-99.99,,2013-03-08 01:42:00,
2013-03-07 19:52:00,33.0,-99.9,-100.00,SSE,164,13.0,-999.0,0,-99.99,,,-99.99,,2013-03-08 01:52:00,
2013-03-07 20:02:00,32.0,-99.9,-100.00,SSE,150,15.0,-999.0,0,-99.99,,,-99.99,,2013-03-08 02:02:00,
2013-03-07 20:12:00,32.0,-99.9,-100.00,SSE,167,12.0,-999.0,0,-99.99,,,-99.99,,2013-03-08 02:12:00,
2013-03-07 20:22:00,32.0,-99.9,-100.00,SSE,160,10.0,-999.0,0,-99.99,,,-99.99,,2013-03-08 02:22:00,
2013-03-07 20:32:00,32.0,-99.9,-100.00,South,190,11.0,-999.0,0,-99.99,,,-99.99,,2013-03-08 02:32:00,
2013-03-07 20:42:00,31.0,-99.9,-100.00,SSE,165,13.0,-999.0,0,-99.99,,,-99.99,,2013-03-08 02:42:00,
2013-03-07 20:53:00,31.0,-99.9,-100.00,South,175,11.0,-999.0,0,-99.99,,,-99.99,,2013-03-08 02:53:00,
2013-03-07 21:02:00,31.0,-99.9,-100.00,South,172,11.0,-999.0,0,-99.99,,,-99.99,,2013-03-08 03:02:00,
2013-03-07 21:12:00,31.0,-99.9,-100.00,SSE,157,11.0,-999.0,0,-99.99,,,-99.99,,2013-03-08 03:12:00,
2013-03-07 21:23:00,30.0,-99.9,-100.00,South,191,11.0,-999.0,0,-99.99,,,-99.99,,2013-03-08 03:23:00,
2013-03-07 21:33:00,31.0,-99.9,-100.00,SSE,164,14.0,-999.0,0,-99.99,,,-99.99,,2013-03-08 03:33:00,
2013-03-07 21:43:00,30.0,-99.9,-100.00,South,176,11.0,-999.0,0,-99.99,,,-99.99,,2013-03-08 03:43:00,
2013-03-07 21:53:00,30.0,-99.9,-100.00,South,180,10.0,-999.0,0,-99.99,,,-99.99,,2013-03-08 03:53:00,
2013-03-07 22:02:00,30.0,-99.9,-100.00,South,183,15.0,-999.0,0,-99.99,,,-99.99,,2013-03-08 04:02:00,
2013-03-07 22:12:00,30.0,-99.9,-100.00,South,182,13.0,-999.0,0,-99.99,,,-99.99,,2013-03-08 04:12:00,
2013-03-07 22:22:00,29.0,-99.9,-100.00,South,183,13.0,-999.0,0,-99.99,,,-99.99,,2013-03-08 04:22:00,
2013-03-07 22:32:00,29.0,-99.9,-100.00,South,190,9.0,-999.0,0,-99.99,,,-99.99,,2013-03-08 04:32:00,
2013-03-07 22:43:00,29.0,-99.9,-100.00,South,175,16.0,-999.0,0,-99.99,,,-99.99,,2013-03-08 04:43:00,
2013-03-07 22:52:00,29.0,-99.9,-100.00,South,170,13.0,-999.0,0,-99.99,,,-99.99,,2013-03-08 04:52:00,
2013-03-07 23:02:00,29.0,-99.9,-100.00,South,174,12.0,-999.0,0,-99.99,,,-99.99,,2013-03-08 05:02:00,
2013-03-07 23:12:00,29.0,-99.9,-100.00,South,190,10.0,-999.0,0,-99.99,,,-99.99,,2013-03-08 05:12:00,
2013-03-07 23:22:00,29.0,-99.9,-100.00,South,183,16.0,-999.0,0,-99.99,,,-99.99,,2013-03-08 05:22:00,
2013-03-07 23:33:00,29.0,-99.9,-100.00,SSE,165,11.0,-999.0,0,-99.99,,,-99.99,,2013-03-08 05:33:00,
2013-03-07 23:43:00,29.0,-99.9,-100.00,South,180,9.0,-999.0,0,-99.99,,,-99.99,,2013-03-08 05:43:00,
2013-03-07 23:52:00,28.0,-99.9,-100.00,SSE,152,9.0,-999.0,0,-99.99,,,-99.99,,2013-03-08 05:52:00,